TimeCDT,TemperatureF,Dew PointF,Humidity,Sea Level PressureIn,VisibilityMPH,Wind Direction,Wind SpeedMPH,Gust SpeedMPH,PrecipitationIn,Events,Conditions,WindDirDegrees,DateUTC
12:52 AM,21.9,19.0,89,30.06,-9999.0,NW,31.1,-,N/A,,Unknown,310,2013-03-12 05:52:00
1:52 AM,21.0,18.0,88,30.08,-9999.0,NW,29.9,40.3,N/A,,Unknown,320,2013-03-12 06:52:00
2:52 AM,19.9,17.1,89,30.11,-9999.0,NW,27.6,35.7,N/A,,Unknown,320,2013-03-12 07:52:00
3:52 AM,19.0,16.0,88,30.14,-9999.0,NNW,26.5,-,N/A,,Unknown,330,2013-03-12 08:52:00
4:52 AM,19.0,16.0,88,30.17,-9999.0,NW,25.3,-,N/A,,Unknown,320,2013-03-12 09:52:00
5:52 AM,17.1,14.0,88,30.19,-9999.0,NW,26.5,-,N/A,,Unknown,320,2013-03-12 10:52:00
6:52 AM,17.1,12.9,84,30.23,-9999.0,NW,23.0,-,N/A,,Unknown,310,2013-03-12 11:52:00
7:52 AM,16.0,12.9,88,30.27,-9999.0,NW,24.2,-,N/A,,Unknown,310,2013-03-12 12:52:00
8:52 AM,14.0,10.0,84,30.29,-9999.0,NW,21.9,-,N/A,,Unknown,310,2013-03-12 13:52:00
9:52 AM,12.9,9.0,84,30.32,-9999.0,NW,21.9,-,N/A,,Unknown,320,2013-03-12 14:52:00
10:52 AM,12.9,8.1,81,30.35,-9999.0,NW,19.6,-,N/A,,Unknown,320,2013-03-12 15:52:00
11:52 AM,15.1,9.0,77,30.37,-9999.0,NW,21.9,-,N/A,,Unknown,320,2013-03-12 16:52:00
12:52 PM,17.1,10.9,77,30.37,-9999.0,NNW,18.4,-,N/A,,Unknown,330,2013-03-12 17:52:00
1:52 PM,18.0,12.0,78,30.38,-9999.0,NW,18.4,-,N/A,,Unknown,320,2013-03-12 18:52:00
2:52 PM,19.0,10.9,71,30.38,-9999.0,NW,17.3,-,N/A,,Unknown,320,2013-03-12 19:52:00
3:52 PM,19.0,10.0,68,30.38,-9999.0,NW,19.6,-,N/A,,Unknown,320,2013-03-12 20:52:00
4:52 PM,19.0,9.0,65,30.38,-9999.0,NW,17.3,-,N/A,,Unknown,320,2013-03-12 21:52:00
5:52 PM,18.0,9.0,68,30.38,-9999.0,NNW,13.8,-,N/A,,Unknown,330,2013-03-12 22:52:00
6:52 PM,16.0,8.1,71,30.38,-9999.0,NW,8.1,-,N/A,,Unknown,320,2013-03-12 23:52:00
7:52 PM,12.0,6.1,77,30.39,-9999.0,Calm,Calm,-,N/A,,Unknown,0,2013-03-13 00:52:00
8:52 PM,10.0,5.0,80,30.38,-9999.0,Calm,Calm,-,N/A,,Unknown,0,2013-03-13 01:52:00
9:52 PM,6.1,1.9,83,30.39,-9999.0,Calm,Calm,-,N/A,,Unknown,0,2013-03-13 02:52:00
10:52 PM,6.1,1.9,83,30.40,-9999.0,Calm,Calm,-,N/A,,Unknown,0,2013-03-13 03:52:00
11:52 PM,3.9,-0.0,84,30.40,-9999.0,Calm,Calm,-,N/A,,Unknown,0,2013-03-13 04:52:00